Location: Jastrz?bniki
(50.3667°N, 20.3833°E)
Time: 11:08:06
(UTC+00:00)

Cosmos 2360 Rocket - Pass Details

Date: 05 August 2024
Orbit: 834 x 843 km, 71.0° (Epoch: 10 September)

Event Time Altitude Azimuth Distance (km) Brightness Sun altitude
Exits shadow 00:47:06 29° 200° (SSW) 1,495 2.9 -17.5°
Maximum altitude 00:50:05 80° 116° (ESE) 861 2.2 -17.3°
Drops below altitude 10° 00:55:46 10° 31° (NNE) 2,471 6.0 -16.8°
Sets 00:58:13 0° 31° (NNE) 3,409 7.2 -16.6°
